ASA64 PANC-PAJN

Flight info

Callsign ASA64
Flight time 1h 5m
Altitude 37000
Route NOEND4 NOEND JOH J501 YAK FAKES ASORT
Aircraft B737/M-SDE2E3FGHIRWXY/LB1D1

Departure

Time 2026-04-10 14:15
Airport Ted Stevens Anchorage International Airport (PANC)

Arrival

Time 2026-04-10 15:21
Airport Juneau International Airport (PAJN)
Time Latitude Longitude Altitude Speed Heading
2026-04-10 14:07 61.17724 -149.98621 106 ft 4 kts 85°
2026-04-10 14:07 61.17720 -149.98676 105 ft 4 kts 73°
2026-04-10 14:08 61.17711 -149.98729 104 ft 4 kts 70°
2026-04-10 14:08 61.17702 -149.98781 104 ft 4 kts 70°
2026-04-10 14:08 61.17693 -149.98833 104 ft 4 kts 70°
2026-04-10 14:08 61.17688 -149.98861 103 ft 0 kts 70°
2026-04-10 14:11 61.17687 -149.98854 103 ft 1 kts 99°
2026-04-10 14:11 61.17680 -149.98858 101 ft 1 kts 210°
2026-04-10 14:11 61.17671 -149.98922 102 ft 9 kts 251°
2026-04-10 14:12 61.17659 -149.99092 102 ft 13 kts 304°
2026-04-10 14:12 61.17734 -149.99183 103 ft 13 kts 298°
2026-04-10 14:12 61.17726 -149.99300 104 ft 12 kts 249°
2026-04-10 14:12 61.17720 -149.99333 106 ft 12 kts 249°
2026-04-10 14:13 61.17692 -149.99499 110 ft 12 kts 251°
2026-04-10 14:13 61.17669 -149.99664 115 ft 12 kts 255°
2026-04-10 14:13 61.17673 -149.99809 113 ft 10 kts 329°
2026-04-10 14:13 61.17730 -149.99890 114 ft 10 kts 317°
2026-04-10 14:14 61.17779 -149.99991 116 ft 10 kts 315°
2026-04-10 14:14 61.17827 -150.00090 114 ft 10 kts 315°
2026-04-10 14:14 61.17879 -150.00197 118 ft 12 kts 315°
2026-04-10 14:14 61.18050 -150.00375 122 ft 59 kts 343°
2026-04-10 14:15 61.18682 -150.00729 133 ft 127 kts 345°
2026-04-10 14:15 61.19706 -150.01312 209 ft 174 kts 345°
2026-04-10 14:15 61.20925 -150.02004 707 ft 188 kts 342°
2026-04-10 14:15 61.22173 -150.03076 1440 ft 194 kts 326°
2026-04-10 14:16 61.23177 -150.04851 2406 ft 194 kts 317°
2026-04-10 14:16 61.24281 -150.06780 2755 ft 222 kts 321°
2026-04-10 14:16 61.25546 -150.08805 3373 ft 234 kts 323°
2026-04-10 14:16 61.26868 -150.10829 4169 ft 238 kts 324°
2026-04-10 14:17 61.28267 -150.12694 5008 ft 242 kts 340°
2026-04-10 14:17 61.29929 -150.12923 5809 ft 245 kts 15°
2026-04-10 14:17 61.31407 -150.11152 6631 ft 250 kts 43°
2026-04-10 14:17 61.32637 -150.08542 7409 ft 256 kts 46°
2026-04-10 14:18 61.33866 -150.05803 8235 ft 261 kts 46°
2026-04-10 14:18 61.34973 -150.02778 9082 ft 268 kts 65°
2026-04-10 14:18 61.35308 -149.98962 9992 ft 274 kts 94°
2026-04-10 14:18 61.34688 -149.95102 10376 ft 297 kts 126°
2026-04-10 14:19 61.33269 -149.91747 10615 ft 323 kts 135°
2026-04-10 14:19 61.31648 -149.88323 11127 ft 338 kts 135°
2026-04-10 14:19 61.30000 -149.84782 11901 ft 344 kts 135°
2026-04-10 14:20 61.28789 -149.82129 12539 ft 347 kts 135°
2026-04-10 14:20 61.27161 -149.78365 13360 ft 355 kts 127°
2026-04-10 14:20 61.26105 -149.73694 14152 ft 362 kts 105°
2026-04-10 14:20 61.25472 -149.68602 14975 ft 366 kts 103°
2026-04-10 14:21 61.24855 -149.63439 15807 ft 371 kts 104°
2026-04-10 14:21 61.24261 -149.58132 16687 ft 375 kts 101°
2026-04-10 14:21 61.23752 -149.52856 17518 ft 379 kts 100°
2026-04-10 14:21 61.23238 -149.47451 18348 ft 384 kts 100°
2026-04-10 14:22 61.22702 -149.41988 19075 ft 389 kts 101°
2026-04-10 14:22 61.22149 -149.36454 19803 ft 393 kts 100°
2026-04-10 14:22 61.21605 -149.30856 20542 ft 397 kts 99°
2026-04-10 14:22 61.21065 -149.25208 21267 ft 401 kts 99°
2026-04-10 14:23 61.20520 -149.19494 21956 ft 406 kts 99°
2026-04-10 14:23 61.19965 -149.13717 22617 ft 411 kts 99°
2026-04-10 14:23 61.19400 -149.07871 23303 ft 415 kts 99°
2026-04-10 14:23 61.18827 -149.01975 23917 ft 420 kts 99°
2026-04-10 14:24 61.18242 -148.96008 24430 ft 425 kts 99°
2026-04-10 14:24 61.17648 -148.89977 24962 ft 429 kts 99°
2026-04-10 14:24 61.17044 -148.83877 25488 ft 434 kts 99°
2026-04-10 14:25 61.16589 -148.79299 25876 ft 437 kts 100°
2026-04-10 14:25 61.15969 -148.73098 26392 ft 442 kts 100°
2026-04-10 14:25 61.15341 -148.66834 26882 ft 446 kts 100°
2026-04-10 14:25 61.14705 -148.60512 27387 ft 450 kts 99°
2026-04-10 14:26 61.14060 -148.54143 27878 ft 455 kts 99°
2026-04-10 14:26 61.13327 -148.47740 28313 ft 461 kts 107°
2026-04-10 14:26 61.11856 -148.41792 28743 ft 468 kts 124°
2026-04-10 14:26 61.09988 -148.36251 29216 ft 473 kts 125°
2026-04-10 14:27 61.08061 -148.30709 29609 ft 477 kts 126°
2026-04-10 14:27 61.06106 -148.25114 29983 ft 482 kts 126°
2026-04-10 14:27 61.04143 -148.19465 30391 ft 485 kts 125°
2026-04-10 14:27 61.02184 -148.13783 30758 ft 488 kts 125°
2026-04-10 14:28 61.00217 -148.08045 31084 ft 491 kts 125°
2026-04-10 14:28 60.98239 -148.02259 31373 ft 495 kts 124°
2026-04-10 14:28 60.96246 -147.96428 31636 ft 500 kts 124°
2026-04-10 14:28 60.94241 -147.90571 31952 ft 502 kts 124°
2026-04-10 14:29 60.92220 -147.84683 32284 ft 504 kts 124°
2026-04-10 14:29 60.90190 -147.78787 32623 ft 505 kts 124°
2026-04-10 14:29 60.88155 -147.72895 32998 ft 506 kts 124°
2026-04-10 14:30 60.86504 -147.68129 33317 ft 505 kts 124°
2026-04-10 14:30 60.84436 -147.62172 33714 ft 505 kts 124°
2026-04-10 14:30 60.82418 -147.56375 34070 ft 506 kts 124°
2026-04-10 14:30 60.80370 -147.50506 34400 ft 506 kts 123°
2026-04-10 14:31 60.78320 -147.44646 34741 ft 505 kts 123°
2026-04-10 14:31 60.76276 -147.38817 35106 ft 503 kts 123°
2026-04-10 14:31 60.74234 -147.33010 35433 ft 502 kts 123°
2026-04-10 14:31 60.72191 -147.27212 35718 ft 502 kts 124°
2026-04-10 14:32 60.70149 -147.21428 35997 ft 502 kts 124°
2026-04-10 14:32 60.68103 -147.15652 36295 ft 502 kts 124°
2026-04-10 14:32 60.66055 -147.09883 36597 ft 501 kts 124°
2026-04-10 14:32 60.64008 -147.04133 36886 ft 500 kts 124°
2026-04-10 14:33 60.61962 -146.98398 37166 ft 500 kts 124°
2026-04-10 14:33 60.59912 -146.92665 37417 ft 500 kts 124°
2026-04-10 14:33 60.57863 -146.86948 37673 ft 500 kts 124°
2026-04-10 14:33 60.55838 -146.81313 37940 ft 499 kts 124°
2026-04-10 14:34 60.53788 -146.75616 38192 ft 499 kts 124°
2026-04-10 14:34 60.49732 -146.64060 38195 ft 501 kts 117°
2026-04-10 14:35 60.48353 -146.58719 38200 ft 496 kts 110°
2026-04-10 14:35 60.46366 -146.45569 38210 ft 483 kts 97°
2026-04-10 14:36 60.44970 -146.32386 38202 ft 480 kts 96°
2026-04-10 14:36 60.43540 -146.19215 38188 ft 477 kts 97°
2026-04-10 14:37 60.42066 -146.06157 38186 ft 475 kts 97°
2026-04-10 14:37 60.40572 -145.93165 38184 ft 473 kts 97°
2026-04-10 14:38 60.39062 -145.80128 38197 ft 481 kts 98°
2026-04-10 14:38 60.37517 -145.66913 38182 ft 482 kts 97°
2026-04-10 14:39 60.35974 -145.53860 38171 ft 479 kts 97°
2026-04-10 14:39 60.34420 -145.40799 38166 ft 477 kts 97°
2026-04-10 14:40 60.34319 -145.39957 38170 ft 476 kts 97°
2026-04-10 14:40 60.32762 -145.27002 38180 ft 474 kts 98°
2026-04-10 14:41 60.31193 -145.14104 38161 ft 472 kts 98°
2026-04-10 14:41 60.29620 -145.01271 38196 ft 470 kts 98°
2026-04-10 14:42 60.28041 -144.88481 38169 ft 470 kts 98°
2026-04-10 14:42 60.26722 -144.77866 38184 ft 469 kts 98°
2026-04-10 14:43 60.25124 -144.65130 38178 ft 469 kts 98°
2026-04-10 14:43 60.23511 -144.52419 38172 ft 468 kts 98°
2026-04-10 14:44 60.21887 -144.39715 38170 ft 469 kts 98°
2026-04-10 14:44 60.20262 -144.27092 38154 ft 470 kts 98°
2026-04-10 14:45 60.19941 -144.24611 38163 ft 469 kts 98°
2026-04-10 14:45 60.18286 -144.11894 38156 ft 469 kts 98°
2026-04-10 14:46 60.16622 -143.99200 38163 ft 470 kts 98°
2026-04-10 14:46 60.11649 -143.61854 38165 ft 470 kts 99°
2026-04-10 14:46 60.08195 -143.36414 38633 ft 476 kts 99°
2026-04-10 14:47 60.04672 -143.10958 39263 ft 478 kts 100°
2026-04-10 14:47 59.97322 -142.59057 39135 ft 483 kts 100°
2026-04-10 14:48 59.89918 -142.08423 39098 ft 467 kts 100°
2026-04-10 14:48 59.82582 -141.59668 39142 ft 457 kts 101°
2026-04-10 14:49 59.75011 -141.10729 39209 ft 472 kts 101°
2026-04-10 14:49 59.71022 -140.85524 39237 ft 483 kts 102°
2026-04-10 14:49 59.66914 -140.59970 39162 ft 487 kts 102°
2026-04-10 14:50 59.64893 -140.47538 39130 ft 485 kts 102°
2026-04-10 14:50 59.58136 -140.06557 39122 ft 475 kts 103°
2026-04-10 14:51 59.55982 -139.93688 39131 ft 470 kts 103°
2026-04-10 14:51 59.53930 -139.81491 39135 ft 467 kts 103°
2026-04-10 14:52 59.51874 -139.69344 39152 ft 466 kts 103°
2026-04-10 14:52 59.49268 -139.57603 39168 ft 472 kts 114°
2026-04-10 14:53 59.46084 -139.46364 39155 ft 474 kts 115°
2026-04-10 14:53 59.42846 -139.35048 39155 ft 475 kts 114°
2026-04-10 14:54 59.39629 -139.23676 39143 ft 478 kts 114°
2026-04-10 14:54 59.36823 -139.13721 39151 ft 480 kts 115°
2026-04-10 14:55 59.35832 -139.10208 39139 ft 480 kts 115°
2026-04-10 14:55 59.26906 -138.78831 39120 ft 484 kts 115°
2026-04-10 14:56 59.18700 -138.50382 39121 ft 480 kts 116°
2026-04-10 14:56 59.15431 -138.39163 39120 ft 473 kts 116°
2026-04-10 14:57 59.12205 -138.28131 39119 ft 471 kts 116°
2026-04-10 14:57 59.08954 -138.17055 38685 ft 474 kts 116°
2026-04-10 14:57 59.07320 -138.11509 38101 ft 472 kts 116°
2026-04-10 14:58 59.05683 -138.05972 37405 ft 472 kts 117°
2026-04-10 14:58 59.04040 -138.00422 36629 ft 475 kts 117°
2026-04-10 14:58 59.02387 -137.94850 35898 ft 477 kts 116°
2026-04-10 14:58 59.00725 -137.89262 35228 ft 477 kts 116°
2026-04-10 14:59 58.99070 -137.83712 34684 ft 475 kts 116°
2026-04-10 14:59 58.97413 -137.78176 34117 ft 473 kts 116°
2026-04-10 14:59 58.95764 -137.72675 33449 ft 472 kts 116°
2026-04-10 15:00 58.95209 -137.70824 33273 ft 470 kts 116°
2026-04-10 15:00 58.93566 -137.65359 32755 ft 466 kts 116°
2026-04-10 15:00 58.91939 -137.59961 32270 ft 460 kts 116°
2026-04-10 15:00 58.90334 -137.54642 31779 ft 456 kts 116°
2026-04-10 15:01 58.88765 -137.49449 31328 ft 452 kts 116°
2026-04-10 15:01 58.87182 -137.44223 30847 ft 448 kts 116°
2026-04-10 15:01 58.85613 -137.39054 30391 ft 444 kts 115°
2026-04-10 15:01 58.84059 -137.33942 29868 ft 440 kts 116°
2026-04-10 15:02 58.82512 -137.28869 29330 ft 434 kts 116°
2026-04-10 15:02 58.80990 -137.23889 28853 ft 427 kts 116°
2026-04-10 15:02 58.79491 -137.18996 28362 ft 422 kts 116°
2026-04-10 15:02 58.78003 -137.14144 27887 ft 417 kts 116°
2026-04-10 15:03 58.76530 -137.09350 27414 ft 413 kts 116°
2026-04-10 15:03 58.75073 -137.04615 26946 ft 409 kts 118°
2026-04-10 15:03 58.73625 -136.99920 26458 ft 406 kts 119°
2026-04-10 15:03 58.72190 -136.95276 25996 ft 401 kts 119°
2026-04-10 15:04 58.70767 -136.90684 25528 ft 397 kts 119°
2026-04-10 15:04 58.69356 -136.86139 25082 ft 393 kts 120°
2026-04-10 15:04 58.67960 -136.81650 24631 ft 390 kts 120°
2026-04-10 15:05 58.62380 -136.63791 22681 ft 377 kts 120°
2026-04-10 15:05 58.57066 -136.46911 20815 ft 361 kts 121°
2026-04-10 15:05 58.51969 -136.30845 19137 ft 346 kts 121°
2026-04-10 15:06 58.49396 -136.22775 18273 ft 339 kts 121°
2026-04-10 15:06 58.48169 -136.18937 17822 ft 337 kts 121°
2026-04-10 15:06 58.46954 -136.15143 17402 ft 333 kts 121°
2026-04-10 15:06 58.45752 -136.11393 16978 ft 330 kts 121°
2026-04-10 15:07 58.44560 -136.07682 16576 ft 326 kts 121°
2026-04-10 15:07 58.43380 -136.04010 16152 ft 324 kts 120°
2026-04-10 15:07 58.42208 -136.00370 15749 ft 321 kts 121°
2026-04-10 15:07 58.41057 -135.96803 15341 ft 318 kts 121°
2026-04-10 15:08 58.39901 -135.93221 14941 ft 316 kts 120°
2026-04-10 15:08 58.38751 -135.89662 14538 ft 314 kts 120°
2026-04-10 15:08 58.37607 -135.86136 14141 ft 312 kts 120°
2026-04-10 15:08 58.36470 -135.82635 13718 ft 310 kts 120°
2026-04-10 15:09 58.35346 -135.79185 13430 ft 302 kts 120°
2026-04-10 15:09 58.34240 -135.75802 13057 ft 299 kts 120°
2026-04-10 15:09 58.32808 -135.71426 12537 ft 296 kts 120°
2026-04-10 15:10 58.30932 -135.65702 11786 ft 294 kts 120°
2026-04-10 15:10 58.28772 -135.59127 10950 ft 291 kts 120°
2026-04-10 15:10 58.26639 -135.52652 10167 ft 286 kts 120°
2026-04-10 15:10 58.24633 -135.46582 9880 ft 266 kts 120°
2026-04-10 15:11 58.23658 -135.43631 9586 ft 261 kts 120°
2026-04-10 15:11 58.22697 -135.40726 9258 ft 259 kts 120°
2026-04-10 15:11 58.21745 -135.37851 8935 ft 256 kts 120°
2026-04-10 15:11 58.20799 -135.35003 8624 ft 253 kts 120°
2026-04-10 15:12 58.19863 -135.32188 8302 ft 252 kts 120°
2026-04-10 15:12 58.18932 -135.29394 8006 ft 249 kts 120°
2026-04-10 15:12 58.18240 -135.26446 7673 ft 243 kts 95°
2026-04-10 15:12 58.18369 -135.23327 7395 ft 237 kts 73°
2026-04-10 15:13 58.18963 -135.20389 7166 ft 243 kts 64°
2026-04-10 15:13 58.19690 -135.17448 6823 ft 246 kts 64°
2026-04-10 15:13 58.20418 -135.14521 6495 ft 245 kts 64°
2026-04-10 15:13 58.21109 -135.11581 6142 ft 243 kts 64°
2026-04-10 15:14 58.21799 -135.08712 5814 ft 241 kts 64°
2026-04-10 15:14 58.22763 -135.06131 5499 ft 237 kts 38°
2026-04-10 15:14 58.24181 -135.04673 5178 ft 235 kts 16°
2026-04-10 15:14 58.25756 -135.04086 4983 ft 229 kts 11°
2026-04-10 15:15 58.27307 -135.03598 4819 ft 222 kts 10°
2026-04-10 15:15 58.31137 -135.02368 4236 ft 211 kts 10°
2026-04-10 15:15 58.35489 -134.99767 3739 ft 186 kts 61°
2026-04-10 15:15 58.35706 -134.97148 3916 ft 162 kts 82°
2026-04-10 15:16 58.35894 -134.94896 3744 ft 180 kts 80°
2026-04-10 15:16 58.35933 -134.92493 3486 ft 180 kts 89°
2026-04-10 15:16 58.35902 -134.90205 3232 ft 170 kts 88°
2026-04-10 15:16 58.35884 -134.88017 3010 ft 156 kts 88°
2026-04-10 15:17 58.35871 -134.86067 2835 ft 141 kts 88°
2026-04-10 15:17 58.35862 -134.84218 2613 ft 135 kts 88°
2026-04-10 15:17 58.35852 -134.82421 2449 ft 137 kts 88°
2026-04-10 15:17 58.35843 -134.80592 2255 ft 138 kts 88°
2026-04-10 15:18 58.35833 -134.78794 2065 ft 137 kts 88°
2026-04-10 15:18 58.35824 -134.76980 1879 ft 137 kts 89°
2026-04-10 15:18 58.35815 -134.75167 1695 ft 137 kts 89°
2026-04-10 15:18 58.35806 -134.73357 1512 ft 136 kts 89°
2026-04-10 15:19 58.35798 -134.71548 1320 ft 136 kts 89°
2026-04-10 15:19 58.35790 -134.69775 1123 ft 131 kts 89°
2026-04-10 15:19 58.35782 -134.68051 1007 ft 130 kts 89°
2026-04-10 15:19 58.35775 -134.66327 779 ft 129 kts 89°
2026-04-10 15:20 58.35768 -134.64646 620 ft 127 kts 89°
2026-04-10 15:20 58.35763 -134.62945 429 ft 130 kts 89°
2026-04-10 15:20 58.35793 -134.61266 207 ft 127 kts 84°
2026-04-10 15:20 58.35773 -134.59610 67 ft 127 kts 103°
2026-04-10 15:21 58.35556 -134.58066 32 ft 109 kts 104°
2026-04-10 15:21 58.35396 -134.56899 34 ft 74 kts 104°
2026-04-10 15:21 58.35294 -134.56174 33 ft 39 kts 105°
2026-04-10 15:21 58.35240 -134.55801 32 ft 27 kts 106°
2026-04-10 15:22 58.35195 -134.55484 31 ft 14 kts 104°
2026-04-10 15:22 58.35203 -134.55323 33 ft 13 kts 35°
2026-04-10 15:22 58.35284 -134.55328 33 ft 13 kts 312°
2026-04-10 15:22 58.35309 -134.55489 33 ft 12 kts 284°
2026-04-10 15:23 58.35331 -134.55646 33 ft 12 kts 284°
2026-04-10 15:23 58.35352 -134.55798 33 ft 12 kts 285°
2026-04-10 15:23 58.35373 -134.55946 33 ft 11 kts 285°
2026-04-10 15:23 58.35393 -134.56091 33 ft 11 kts 285°
2026-04-10 15:24 58.35413 -134.56231 33 ft 11 kts 285°
2026-04-10 15:24 58.35432 -134.56368 33 ft 11 kts 285°
2026-04-10 15:24 58.35451 -134.56500 33 ft 10 kts 284°
2026-04-10 15:24 58.35469 -134.56637 33 ft 11 kts 284°
2026-04-10 15:25 58.35490 -134.56793 33 ft 13 kts 284°
2026-04-10 15:25 58.35515 -134.56977 33 ft 15 kts 284°
2026-04-10 15:25 58.35543 -134.57176 32 ft 16 kts 285°
2026-04-10 15:25 58.35572 -134.57372 33 ft 16 kts 285°
2026-04-10 15:26 58.35601 -134.57577 33 ft 16 kts 285°
2026-04-10 15:26 58.35630 -134.57787 33 ft 17 kts 284°
2026-04-10 15:26 58.35652 -134.57953 33 ft 12 kts 284°
2026-04-10 15:26 58.35672 -134.58099 31 ft 11 kts 284°
2026-04-10 15:27 58.35692 -134.58241 32 ft 11 kts 284°
2026-04-10 15:27 58.35711 -134.58332 33 ft 5 kts 263°
2026-04-10 15:27 58.35715 -134.58400 33 ft 6 kts 284°
2026-04-10 15:27 58.35728 -134.58497 32 ft 9 kts 284°
2026-04-10 15:28 58.35748 -134.58639 33 ft 13 kts 284°
2026-04-10 15:28 58.35773 -134.58824 32 ft 16 kts 285°
2026-04-10 15:28 58.35802 -134.59029 33 ft 16 kts 284°
2026-04-10 15:28 58.35829 -134.59229 32 ft 15 kts 284°
2026-04-10 15:29 58.35856 -134.59422 33 ft 15 kts 284°
2026-04-10 15:29 58.35874 -134.59595 33 ft 9 kts 258°
2026-04-10 15:29 58.35858 -134.59635 33 ft 0 kts 216°
2026-04-10 15:30 58.35855 -134.59638 33 ft 1 kts 213°
2026-04-10 15:31 58.35853 -134.59640 33 ft 0 kts 208°